[[{"header":{"parameterUnit":"m.s-1","parameterCategory":2,"la1":30.2991,"la2":30.254,"lo1":-89.0895,"lo2":-89.0444,"dy":0.0017,"dx":0.0017,"nx":28,"ny":28,"refTime":"2026-01-04T09:00:00:Z","depth":"0","parameterNumber":2,"parameterNumberName":"U-component_of_CURRENTS"},"data":[0,0,0,0,0,0,0,0,0,0,0,0,0,0,0,0,0,0,0,0,0,0,0,0,0,0,0,0,0,0,0,0,0,0,0,0,0,0,0,0,0,0,0,0,0,0,0,0,0,0,0,0,0,0,0,0,0,0,-0.3184,-0.3185,0,-0.3293,-0.3294,-0.3295,-0.3342,-0.3342,-0.3341,-0.3341,-0.3377,-0.3378,-0.3379,0,0,0,0,0,0,0,0,0,0,0,0,0,-0.306,-0.3062,-0.3184,-0.3185,-0.3187,-0.3293,-0.3294,-0.3296,-0.3342,-0.3342,-0.3341,-0.3341,-0.3376,-0.3378,-0.3379,0,0,0,0,0,0,0,0,0,0,0,0,0,-0.3136,-0.3062,-0.3184,-0.3222,-0.3227,-0.3292,-0.3294,-0.3296,-0.3342,-0.3342,-0.3341,-0.3341,-0.3376,-0.3378,-0.3379,-0.3395,0,0,-0.3384,-0.3385,0,0,0,0,0,0,0,0,-0.3131,-0.314,-0.3215,-0.322,-0.3225,-0.3303,-0.3264,-0.3326,-0.3342,-0.3298,-0.3341,-0.3341,-0.3345,-0.335,-0.3372,-0.3397,-0.3399,-0.3384,-0.3385,-0.3386,-0.3387,0,0,0,0,0,0,0,-0.3126,-0.3136,-0.3227,-0.3217,-0.3223,-0.3249,-0.3259,-0.3276,-0.3321,-0.3302,-0.3306,-0.3318,-0.3348,-0.337,-0.3373,-0.3399,-0.3384,-0.3386,-0.3387,-0.3388,-0.3457,-0.3458,0,0,0,0,0,0,-0.3111,-0.3131,-0.3224,-0.323,-0.3177,-0.3252,-0.3263,-0.3279,-0.3322,-0.333,-0.3318,-0.332,-0.3368,-0.3371,-0.3374,-0.338,-0.3386,-0.3388,-0.3389,-0.3456,-0.3457,-0.3458,0,0,0,0,0,0,-0.3108,-0.3118,-0.3219,-0.3183,-0.3197,-0.3254,-0.3271,-0.3281,-0.33,-0.3335,-0.3341,-0.3326,-0.3367,-0.3372,-0.3404,-0.3382,-0.3389,-0.339,-0.3455,-0.3456,-0.3457,-0.3401,0,0,0,0,0,0,-0.3104,-0.3117,-0.3118,-0.3182,-0.3199,-0.324,-0.3272,-0.3283,-0.3308,-0.3311,-0.3344,-0.3348,-0.3368,-0.3402,-0.3406,-0.3384,-0.3391,-0.3454,-0.3456,-0.3457,-0.3402,-0.34,-0.3399,0,0,0,0,0,-0.3099,-0.3097,-0.3118,-0.3129,-0.3201,-0.324,-0.325,-0.329,-0.3308,-0.3308,-0.3353,-0.3347,-0.3414,-0.3405,-0.3409,-0.3387,-0.3453,-0.3455,-0.3457,-0.3402,-0.34,-0.3399,0,0,0,0,0,0,-0.3041,-0.3104,-0.3127,-0.3144,-0.3182,-0.3247,-0.325,-0.3285,-0.3323,-0.3324,-0.3364,-0.3371,-0.3389,-0.3407,-0.3396,-0.3417,-0.343,-0.3432,-0.3387,-0.3385,-0.3383,-0.3356,-0.3393,0,0,0,0,0,-0.3031,-0.3043,-0.3108,-0.3115,-0.3134,-0.3193,-0.3214,-0.3242,-0.3287,-0.3304,-0.3331,-0.3366,-0.3403,-0.3409,-0.3438,-0.3448,-0.3434,-0.3439,-0.3437,-0.3435,-0.342,-0.3407,-0.3402,-0.3464,-0.3464,-0.3464,0,0,-0.3008,-0.3044,-0.305,-0.3103,-0.3136,-0.3163,-0.3204,-0.3226,-0.3246,-0.33,-0.3322,-0.3359,-0.3409,-0.3427,-0.3434,-0.3434,-0.3407,-0.3438,-0.3435,-0.3421,-0.3408,-0.3402,-0.3396,-0.3465,-0.3465,-0.3465,0,0,-0.297,-0.3002,-0.3004,-0.3038,-0.3085,-0.3125,-0.3129,-0.3188,-0.3208,-0.3243,-0.3293,-0.332,-0.3365,-0.3394,-0.3419,-0.3426,-0.3404,-0.3436,-0.3394,-0.3382,-0.3375,-0.337,-0.3316,-0.3306,-0.3427,-0.3427,-0.3427,0,-0.2939,-0.2962,-0.3007,-0.3025,-0.305,-0.3106,-0.312,-0.3152,-0.3211,-0.3227,-0.3235,-0.3315,-0.3346,-0.3383,-0.3391,-0.3415,-0.3397,-0.3391,-0.3375,-0.3369,-0.3364,-0.3311,-0.33,-0.3425,-0.3425,-0.3425,-0.3426,0,-0.2916,-0.2936,-0.2937,-0.2983,-0.3012,-0.3026,-0.3085,-0.3104,-0.3134,-0.3169,-0.32,-0.3249,-0.3295,-0.3308,-0.3352,-0.3345,-0.3338,-0.3375,-0.3367,-0.3353,-0.3299,-0.3289,-0.3421,-0.3422,-0.3423,-0.3423,0,0,-0.2835,-0.2908,-0.2906,-0.2926,-0.2993,-0.3011,-0.3041,-0.3085,-0.3102,-0.3131,-0.3147,-0.3202,-0.3222,-0.3253,-0.3299,-0.3286,-0.3231,-0.3311,-0.3311,-0.3234,-0.3168,-0.3075,-0.3055,-0.3266,-0.3265,-0.3264,-0.3133,0,-0.2801,-0.2823,-0.2874,-0.2891,-0.2908,-0.2975,-0.3002,-0.3045,-0.308,-0.3104,-0.3139,-0.3171,-0.3205,-0.3224,-0.3217,-0.3255,-0.3207,-0.326,-0.3214,-0.3211,-0.3111,-0.3042,-0.2931,-0.2799,-0.3123,-0.3122,-0.312,0,-0.2757,-0.2783,-0.2795,-0.2858,-0.2871,-0.2888,-0.2938,-0.2971,-0.3026,-0.3053,-0.308,-0.3121,-0.3134,-0.3156,-0.3141,-0.3177,-0.3153,-0.3152,-0.3149,-0.3072,-0.3099,-0.2874,-0.2769,-0.2763,-0.3105,-0.3106,-0.3107,0,-0.2669,-0.2723,-0.2729,-0.275,-0.2828,-0.284,-0.2877,-0.294,-0.2968,-0.3013,-0.3031,-0.3059,-0.3074,-0.306,-0.307,-0.3104,-0.3026,-0.3078,-0.2948,-0.2941,-0.284,-0.2826,-0.2702,-0.3012,-0.3012,-0.3012,-0.3013,0,-0.2611,-0.261,-0.2685,-0.2686,-0.2691,-0.277,-0.2781,-0.283,-0.2893,-0.2914,-0.2988,-0.2999,-0.3052,-0.3036,-0.303,-0.2942,-0.2985,-0.2901,-0.2893,-0.2816,-0.2802,-0.2791,-0.2837,-0.3007,-0.3009,-0.301,-0.301,0,-0.2503,-0.2557,-0.2563,-0.2631,-0.2647,-0.2644,-0.272,-0.2736,-0.2811,-0.2838,-0.2851,-0.2938,-0.2911,-0.2922,-0.2897,-0.2874,-0.2758,-0.2765,-0.2647,-0.2626,-0.2498,-0.2546,-0.2406,-0.2334,-0.2585,-0.2582,-0.2579,0,-0.2447,-0.2439,-0.2495,-0.2498,-0.2521,-0.2544,-0.2565,-0.2665,-0.2697,-0.2792,-0.2795,-0.2801,-0.2775,-0.2693,-0.2645,-0.255,-0.2598,-0.2411,-0.2452,-0.2429,-0.2478,-0.2523,-0.2478,-0.2288,-0.2283,-0.2279,-0.2276,0,-0.2331,-0.2351,-0.2363,-0.2374,-0.2388,-0.2411,-0.2454,-0.2474,-0.2591,-0.262,-0.2644,-0.2625,-0.2559,-0.2438,-0.2338,-0.2284,-0.2354,-0.2323,-0.234,-0.2243,-0.2244,-0.2192,-0.2426,-0.2241,-0.2244,-0.2247,-0.2249,-0.225,-0.2229,-0.2213,-0.2235,-0.223,-0.2252,-0.2258,-0.2237,-0.2313,-0.2334,-0.2367,-0.2441,-0.2392,-0.2328,-0.2164,-0.2093,-0.1969,-0.2056,-0.1951,-0.2008,-0.2054,-0.1985,-0.211,-0.1905,-0.1906,-0.1908,-0.1909,-0.191,0,-0.2093,-0.2096,-0.2093,-0.209,-0.206,-0.2117,-0.2144,-0.2114,-0.2097,-0.2163,-0.2156,-0.2117,-0.1967,-0.1921,-0.1799,-0.1715,-0.1687,-0.1694,-0.1752,-0.1719,-0.1843,-0.1832,-0.1552,-0.1552,-0.1552,-0.1552,-0.1552,-0.1552,-0.2024,-0.1975,-0.1979,-0.1888,-0.1885,-0.1806,-0.1789,-0.1783,-0.1805,-0.1784,-0.1807,-0.1848,-0.1809,-0.1893,-0.1742,-0.1642,-0.1627,-0.1561,-0.1605,-0.1742,-0.1772,-0.1801,-0.1799,-0.1517,-0.1517,-0.141,-0.1409,-0.1409]},{"header":{"parameterUnit":"m.s-1","parameterCategory":2,"la1":30.2991,"la2":30.254,"lo1":-89.0895,"lo2":-89.0444,"dy":0.0017,"dx":0.0017,"nx":28,"ny":28,"refTime":"2026-01-04T09:00:00:Z","depth":"0","parameterNumber":3,"parameterNumberName":"V-component_of_CURRENTS"},"data":[0,0,0,0,0,0,0,0,0,0,0,0,0,0,0,0,0,0,0,0,0,0,0,0,0,0,0,0,0,0,0,0,0,0,0,0,0,0,0,0,0,0,0,0,0,0,0,0,0,0,0,0,0,0,0,0,0,0,-0.0462,-0.046,0,-0.0313,-0.0311,-0.0309,-0.0225,-0.0225,-0.0225,-0.0225,0.0028,0.0035,0.0041,0,0,0,0,0,0,0,0,0,0,0,0,0,-0.0567,-0.0566,-0.0462,-0.046,-0.0459,-0.0313,-0.0311,-0.0308,-0.0225,-0.0225,-0.0225,-0.0225,0.0026,0.0034,0.0042,0,0,0,0,0,0,0,0,0,0,0,0,0,-0.0478,-0.0566,-0.0462,-0.0402,-0.0395,-0.0313,-0.031,-0.0308,-0.0225,-0.0225,-0.0225,-0.0225,0.0023,0.0033,0.0043,0.0105,0,0,0.0074,0.0078,0,0,0,0,0,0,0,0,-0.0483,-0.0474,-0.0412,-0.0406,-0.0398,-0.029,-0.0255,-0.0165,-0.0225,-0.0286,-0.0225,-0.0225,-0.007,-0.0053,-0.0022,0.0117,0.0128,0.0075,0.0081,0.0085,0.0088,0,0,0,0,0,0,0,-0.049,-0.0479,-0.04,-0.041,-0.0402,-0.0345,-0.0333,-0.0237,-0.0176,-0.0281,-0.0275,-0.0263,-0.0065,-0.0032,-0.0015,0.0132,0.0075,0.0084,0.009,0.0094,0.0332,0.0332,0,0,0,0,0,0,-0.0519,-0.0486,-0.0405,-0.0396,-0.0445,-0.0344,-0.033,-0.0322,-0.0179,-0.0159,-0.0263,-0.026,-0.0049,-0.0027,-0.0006,0.005,0.0085,0.0095,0.0101,0.0332,0.0332,0.0332,0,0,0,0,0,0,-0.0522,-0.0514,-0.0411,-0.0439,-0.0423,-0.0344,-0.0334,-0.0319,-0.029,-0.0167,-0.0145,-0.0251,-0.0048,-0.002,0.0073,0.0061,0.0099,0.0108,0.0331,0.0332,0.0332,0.0179,0,0,0,0,0,0,-0.0526,-0.0516,-0.0519,-0.0442,-0.0422,-0.0378,-0.0334,-0.0316,-0.0284,-0.0278,-0.0149,-0.0125,-0.0046,0.0058,0.0083,0.0076,0.0116,0.0331,0.0332,0.0332,0.0184,0.0174,0.0166,0,0,0,0,0,-0.053,-0.0538,-0.052,-0.0511,-0.043,-0.0379,-0.0364,-0.0304,-0.0284,-0.0277,-0.0187,-0.013,0.0079,0.0066,0.0096,0.0091,0.0331,0.0331,0.0332,0.0188,0.0176,0.0166,0,0,0,0,0,0,-0.0581,-0.0528,-0.0507,-0.0498,-0.0451,-0.0366,-0.0353,-0.0314,-0.0238,-0.023,-0.0117,-0.0086,-0.0013,0.0068,0.0051,0.0164,0.0212,0.0218,0.0091,0.0082,0.0073,0.0047,0.0125,0,0,0,0,0,-0.0598,-0.0593,-0.0529,-0.0523,-0.0505,-0.0432,-0.0404,-0.0366,-0.0291,-0.0259,-0.017,-0.0071,0.0015,0.0068,0.0157,0.0228,0.0304,0.0244,0.0235,0.0227,0.0227,0.0326,0.0325,0.0334,0.0334,0.0334,0,0,-0.0615,-0.0586,-0.0582,-0.0534,-0.0492,-0.0473,-0.0414,-0.0383,-0.0363,-0.024,-0.0183,-0.0097,0.0027,0.0095,0.0136,0.0161,0.0262,0.0227,0.0219,0.0225,0.0326,0.0325,0.0324,0.0335,0.0335,0.0335,0,0,-0.0652,-0.0624,-0.0634,-0.0603,-0.0555,-0.0509,-0.0508,-0.0432,-0.0396,-0.033,-0.0244,-0.0166,-0.0029,0.0049,0.0109,0.0113,0.0207,0.0137,0.0077,0.0171,0.0171,0.0171,0.0248,0.0257,0.0136,0.0135,0.0135,0,-0.0675,-0.0677,-0.0627,-0.0627,-0.0609,-0.0535,-0.0538,-0.0488,-0.0392,-0.0356,-0.0332,-0.0142,-0.0051,0.0043,0.0033,0.009,0.0155,0.0098,0.0156,0.0159,0.0162,0.0242,0.0253,0.0128,0.0129,0.013,0.013,0,-0.0715,-0.0716,-0.0719,-0.0698,-0.0672,-0.0662,-0.0597,-0.0563,-0.0513,-0.045,-0.0357,-0.0236,-0.0122,-0.0091,-0.0027,0.0039,0.0079,0.0124,0.0171,0.0151,0.0237,0.0252,0.0118,0.012,0.0122,0.0124,0,0,-0.0759,-0.0752,-0.0751,-0.0757,-0.071,-0.0691,-0.0666,-0.0608,-0.0578,-0.0492,-0.0438,-0.0315,-0.0251,-0.0179,-0.0091,-0.0016,0.0046,0.0047,0.0056,0.0101,0.0243,0.028,0.03,0.0096,0.0098,0.01,0.0286,0,-0.0802,-0.0834,-0.0809,-0.0826,-0.0833,-0.077,-0.0749,-0.0687,-0.0614,-0.0542,-0.0425,-0.0338,-0.0283,-0.0234,-0.0155,0.001,0.0081,-0.0009,0.0277,0.0285,0.0303,0.0318,0.0356,0.0526,0.0301,0.0304,0.0305,0,-0.0844,-0.086,-0.0897,-0.0891,-0.0886,-0.0883,-0.0827,-0.0796,-0.0682,-0.0622,-0.0525,-0.0425,-0.0302,-0.0257,-0.0013,-0.0074,0.0062,0.018,0.0191,0.0293,0.035,0.0519,0.0563,0.0722,0.0329,0.0327,0.0326,0,-0.0898,-0.0915,-0.0951,-0.0949,-0.093,-0.0929,-0.0908,-0.082,-0.0782,-0.0668,-0.0615,-0.0462,-0.036,-0.0189,0.0037,0.0018,0.0314,0.0329,0.049,0.0494,0.062,0.0631,0.0838,0.0494,0.0494,0.0493,0.0493,0,-0.095,-0.0974,-0.0983,-0.1,-0.1027,-0.0989,-0.0981,-0.0932,-0.0846,-0.0786,-0.0663,-0.0568,-0.0337,-0.0143,0.0035,0.0315,0.0321,0.0488,0.0552,0.0566,0.057,0.079,0.0842,0.05,0.0499,0.0497,0.0496,0,-0.0998,-0.1009,-0.1048,-0.1054,-0.1058,-0.1073,-0.1046,-0.1025,-0.0939,-0.0856,-0.0825,-0.062,-0.0365,-0.0125,0.0193,0.0335,0.0695,0.0676,0.0664,0.0721,0.0981,0.1021,0.1311,0.1415,0.0872,0.0875,0.0876,0,-0.1025,-0.1055,-0.1093,-0.1121,-0.1128,-0.1142,-0.1145,-0.1081,-0.1046,-0.0872,-0.0829,-0.0581,-0.0375,0.0087,0.0383,0.0709,0.0833,0.092,0.0885,0.1012,0.1105,0.1136,0.1204,0.0994,0.0997,0.0999,0.1001,0,-0.1065,-0.1083,-0.1117,-0.1181,-0.1207,-0.1224,-0.1217,-0.1208,-0.1106,-0.1001,-0.081,-0.0634,-0.0191,0.0201,0.0605,0.0801,0.1034,0.0972,0.1134,0.124,0.1263,0.1388,0.0837,0.102,0.1018,0.1017,0.1015,0.1015,-0.1084,-0.1125,-0.1174,-0.1229,-0.1265,-0.1289,-0.129,-0.1247,-0.1171,-0.0988,-0.081,-0.0493,0.0038,0.062,0.0838,0.1269,0.1225,0.1393,0.1439,0.1465,0.1544,0.1012,0.1238,0.1237,0.1237,0.1236,0.1236,0,-0.1097,-0.1149,-0.1213,-0.1276,-0.1318,-0.1322,-0.1316,-0.1274,-0.1172,-0.0958,-0.0732,-0.0114,0.0412,0.0888,0.1482,0.1718,0.1775,0.1836,0.1902,0.1956,0.1534,0.1515,0.1774,0.1774,0.1774,0.1774,0.1773,0.1773,-0.1106,-0.1172,-0.1214,-0.1293,-0.1335,-0.135,-0.134,-0.1248,-0.1094,-0.0707,-0.0346,-0.0045,0.0628,0.1541,0.2086,0.2146,0.2344,0.2333,0.2437,0.2141,0.2103,0.2066,0.2064,0.2433,0.2434,0.2858,0.2862,0.2865]}],[{"header":{"parameterUnit":"m.s-1","parameterCategory":2,"la1":30.2991,"la2":30.254,"lo1":-89.0895,"lo2":-89.0444,"dy":0.0017,"dx":0.0017,"nx":28,"ny":28,"refTime":"2026-01-04T09:00:00:Z","depth":"2","parameterNumber":2,"parameterNumberName":"U-component_of_CURRENTS"},"data":[0,0,0,0,0,0,0,0,0,0,0,0,0,0,0,0,0,0,0,0,0,0,0,0,0,0,0,0,0,0,0,0,0,0,0,0,0,0,0,0,0,0,0,0,0,0,0,0,0,0,0,0,0,0,0,0,0,0,-0.2684,-0.2684,0,-0.27,-0.2699,-0.2699,-0.2675,-0.2675,-0.2675,-0.2674,-0.2639,-0.2639,-0.2638,0,0,0,0,0,0,0,0,0,0,0,0,0,-0.2612,-0.2614,-0.2684,-0.2684,-0.2685,-0.27,-0.2699,-0.2699,-0.2676,-0.2675,-0.2674,-0.2674,-0.2639,-0.2639,-0.2638,0,0,0,0,0,0,0,0,0,0,0,0,0,-0.2634,-0.2614,-0.2684,-0.2678,-0.2678,-0.27,-0.2699,-0.2699,-0.2676,-0.2675,-0.2674,-0.2674,-0.264,-0.2639,-0.2638,-0.2647,0,0,-0.2636,-0.2635,0,0,0,0,0,0,0,0,-0.2632,-0.2636,-0.2678,-0.2678,-0.2678,-0.2688,-0.2662,-0.2681,-0.2676,-0.2672,-0.2674,-0.2673,-0.2654,-0.2652,-0.2651,-0.2645,-0.2644,-0.2636,-0.2635,-0.2635,-0.2635,0,0,0,0,0,0,0,-0.2631,-0.2635,-0.2686,-0.2679,-0.2679,-0.2668,-0.267,-0.2665,-0.2663,-0.2672,-0.2672,-0.268,-0.2653,-0.2652,-0.265,-0.2643,-0.2636,-0.2635,-0.2635,-0.2634,-0.265,-0.2651,0,0,0,0,0,0,-0.2639,-0.2634,-0.2685,-0.2687,-0.2658,-0.267,-0.2672,-0.2682,-0.2664,-0.2662,-0.2681,-0.2679,-0.2654,-0.2651,-0.2649,-0.2659,-0.2635,-0.2634,-0.2634,-0.265,-0.2651,-0.2652,0,0,0,0,0,0,-0.2638,-0.2644,-0.2685,-0.2663,-0.2668,-0.2673,-0.2684,-0.2683,-0.2687,-0.2672,-0.2668,-0.2686,-0.2653,-0.265,-0.2648,-0.2657,-0.2634,-0.2633,-0.2648,-0.265,-0.2651,-0.2678,0,0,0,0,0,0,-0.2636,-0.2643,-0.2648,-0.2664,-0.267,-0.2697,-0.2685,-0.2684,-0.2695,-0.2693,-0.2675,-0.2671,-0.2653,-0.265,-0.2648,-0.2656,-0.2633,-0.2647,-0.2649,-0.2651,-0.2676,-0.268,-0.2684,0,0,0,0,0,-0.2633,-0.2635,-0.2648,-0.2654,-0.2679,-0.2698,-0.2699,-0.2697,-0.2696,-0.2697,-0.2689,-0.2672,-0.2659,-0.265,-0.2647,-0.2655,-0.2647,-0.2649,-0.2651,-0.2674,-0.2679,-0.2683,0,0,0,0,0,0,-0.2597,-0.2634,-0.2648,-0.266,-0.2682,-0.2695,-0.2692,-0.2705,-0.27,-0.2695,-0.2681,-0.2676,-0.2677,-0.2668,-0.2659,-0.2667,-0.2651,-0.2653,-0.267,-0.2675,-0.2678,-0.2669,-0.2632,0,0,0,0,0,-0.2599,-0.2609,-0.2648,-0.2654,-0.2668,-0.2686,-0.2693,-0.27,-0.2704,-0.2702,-0.2696,-0.2689,-0.2684,-0.2681,-0.2672,-0.2679,-0.2652,-0.2684,-0.2688,-0.2691,-0.2683,-0.2666,-0.2666,-0.2658,-0.2658,-0.2658,0,0,-0.2583,-0.2606,-0.261,-0.2647,-0.266,-0.2679,-0.2687,-0.27,-0.2712,-0.2699,-0.2702,-0.2699,-0.2689,-0.2691,-0.2691,-0.2684,-0.2678,-0.2694,-0.2696,-0.2686,-0.2668,-0.2668,-0.2669,-0.2659,-0.2659,-0.2659,0,0,-0.2558,-0.2584,-0.2589,-0.2615,-0.2649,-0.2667,-0.2678,-0.2705,-0.2711,-0.2726,-0.2718,-0.2721,-0.272,-0.2712,-0.2708,-0.2731,-0.2698,-0.2737,-0.2747,-0.2731,-0.2731,-0.2731,-0.2688,-0.2683,-0.274,-0.274,-0.274,0,-0.2537,-0.2557,-0.259,-0.2609,-0.2627,-0.2666,-0.268,-0.2698,-0.272,-0.2726,-0.2727,-0.2733,-0.2725,-0.2727,-0.2736,-0.2737,-0.2716,-0.2729,-0.2734,-0.2734,-0.2733,-0.2689,-0.2683,-0.2742,-0.2742,-0.2742,-0.2741,0,-0.2523,-0.2544,-0.2548,-0.2589,-0.2613,-0.2629,-0.2674,-0.2694,-0.2715,-0.2732,-0.2745,-0.2744,-0.2745,-0.2753,-0.275,-0.2751,-0.2733,-0.2739,-0.2719,-0.2735,-0.2688,-0.2682,-0.2744,-0.2744,-0.2743,-0.2743,0,0,-0.2456,-0.2525,-0.2525,-0.2546,-0.2607,-0.2622,-0.2655,-0.2691,-0.2705,-0.2733,-0.2742,-0.2753,-0.2761,-0.2759,-0.2763,-0.2757,-0.2734,-0.275,-0.2749,-0.2699,-0.2677,-0.2596,-0.2581,-0.2744,-0.2744,-0.2744,-0.2642,0,-0.2432,-0.2459,-0.2505,-0.2528,-0.2548,-0.2606,-0.2632,-0.2671,-0.2702,-0.2721,-0.274,-0.2747,-0.2763,-0.2764,-0.2764,-0.2747,-0.2721,-0.2759,-0.2676,-0.2672,-0.2592,-0.2573,-0.2399,-0.2289,-0.2636,-0.2635,-0.2634,0,-0.2399,-0.2426,-0.2447,-0.2507,-0.2521,-0.2541,-0.2591,-0.2621,-0.267,-0.2694,-0.2719,-0.2736,-0.2743,-0.275,-0.2718,-0.2744,-0.2706,-0.2688,-0.2684,-0.2592,-0.258,-0.2332,-0.2265,-0.2624,-0.2624,-0.2625,-0.2626,0,-0.2326,-0.2382,-0.2395,-0.2416,-0.2491,-0.2506,-0.2542,-0.26,-0.2625,-0.267,-0.2686,-0.2708,-0.2707,-0.269,-0.2669,-0.2691,-0.2616,-0.2637,-0.2518,-0.2511,-0.2336,-0.2315,-0.2586,-0.2586,-0.2586,-0.2586,-0.2587,0,-0.2279,-0.2286,-0.236,-0.2365,-0.2378,-0.2452,-0.247,-0.2515,-0.2573,-0.2589,-0.2658,-0.2661,-0.2693,-0.267,-0.2649,-0.2557,-0.2594,-0.2499,-0.2477,-0.234,-0.2321,-0.2598,-0.2601,-0.2582,-0.2583,-0.2584,-0.2585,0,-0.2189,-0.2242,-0.2257,-0.2326,-0.2343,-0.2347,-0.242,-0.2436,-0.2508,-0.2529,-0.2543,-0.2608,-0.2576,-0.2581,-0.2536,-0.2506,-0.2442,-0.2393,-0.2219,-0.2179,-0.2351,-0.2357,-0.2246,-0.2242,-0.2239,-0.2237,-0.2234,0,-0.2143,-0.2142,-0.2201,-0.2207,-0.2232,-0.2262,-0.2283,-0.2377,-0.2402,-0.2483,-0.2478,-0.2482,-0.2446,-0.236,-0.2301,-0.2215,-0.2317,-0.2018,-0.203,-0.2324,-0.2315,-0.2326,-0.2336,-0.1801,-0.1795,-0.179,-0.1787,0,-0.2046,-0.2068,-0.2083,-0.2098,-0.2115,-0.2138,-0.2178,-0.2191,-0.2295,-0.2313,-0.2317,-0.2294,-0.223,-0.2071,-0.1985,-0.1924,-0.2029,-0.1921,-0.2252,-0.1928,-0.19,-0.1893,-0.1917,-0.1746,-0.175,-0.1753,-0.1755,-0.1757,-0.1959,-0.1946,-0.1969,-0.1967,-0.1991,-0.1989,-0.1961,-0.2018,-0.2021,-0.2019,-0.2098,-0.2006,-0.1987,-0.1755,-0.1658,-0.1594,-0.1734,-0.1678,-0.1694,-0.1714,-0.1695,-0.1664,-0.146,-0.1463,-0.1465,-0.1466,-0.1468,0,-0.1842,-0.1841,-0.1839,-0.1834,-0.1803,-0.186,-0.1867,-0.1813,-0.1761,-0.1787,-0.176,-0.1567,-0.1452,-0.144,-0.1269,-0.1237,-0.124,-0.1196,-0.1208,-0.1248,-0.1284,-0.1246,-0.0891,-0.0889,-0.0888,-0.0886,0,0,-0.1783,-0.1735,-0.1732,-0.1638,-0.1633,-0.1545,-0.1514,-0.1453,-0.1432,-0.1329,-0.1284,-0.1384,-0.1398,-0.1157,-0.109,-0.0965,-0.1099,-0.0912,-0.1372,-0.1426,-0.1461,-0.1553,-0.1538,0,0,0,0,0]},{"header":{"parameterUnit":"m.s-1","parameterCategory":2,"la1":30.2991,"la2":30.254,"lo1":-89.0895,"lo2":-89.0444,"dy":0.0017,"dx":0.0017,"nx":28,"ny":28,"refTime":"2026-01-04T09:00:00:Z","depth":"2","parameterNumber":3,"parameterNumberName":"V-component_of_CURRENTS"},"data":[0,0,0,0,0,0,0,0,0,0,0,0,0,0,0,0,0,0,0,0,0,0,0,0,0,0,0,0,0,0,0,0,0,0,0,0,0,0,0,0,0,0,0,0,0,0,0,0,0,0,0,0,0,0,0,0,0,0,-0.0403,-0.0402,0,-0.0294,-0.0292,-0.0291,-0.0231,-0.0231,-0.0231,-0.0231,-0.0066,-0.0062,-0.0058,0,0,0,0,0,0,0,0,0,0,0,0,0,-0.0479,-0.0478,-0.0403,-0.0402,-0.04,-0.0294,-0.0292,-0.0291,-0.0231,-0.0231,-0.0231,-0.0231,-0.0068,-0.0063,-0.0057,0,0,0,0,0,0,0,0,0,0,0,0,0,-0.0415,-0.0478,-0.0403,-0.0359,-0.0354,-0.0294,-0.0292,-0.029,-0.0231,-0.0231,-0.0231,-0.0231,-0.0069,-0.0063,-0.0057,-0.0018,0,0,-0.0037,-0.0034,0,0,0,0,0,0,0,0,-0.0419,-0.0412,-0.0366,-0.0362,-0.0356,-0.0277,-0.0259,-0.0197,-0.0231,-0.0277,-0.0231,-0.0231,-0.0132,-0.0121,-0.01,-0.0011,-0.0003,-0.0036,-0.0032,-0.003,-0.0028,0,0,0,0,0,0,0,-0.0423,-0.0416,-0.0359,-0.0365,-0.0359,-0.0316,-0.0308,-0.0246,-0.0205,-0.0273,-0.0268,-0.0258,-0.0129,-0.0106,-0.0095,-0.0001,-0.0036,-0.0031,-0.0027,-0.0024,0.0138,0.0138,0,0,0,0,0,0,-0.0443,-0.0421,-0.0362,-0.0355,-0.0389,-0.0316,-0.0306,-0.0302,-0.0206,-0.0192,-0.0258,-0.0256,-0.0117,-0.0103,-0.0089,-0.0039,-0.003,-0.0023,-0.002,0.0137,0.0138,0.0138,0,0,0,0,0,0,-0.0445,-0.0439,-0.0366,-0.0386,-0.0374,-0.0315,-0.031,-0.0299,-0.0279,-0.0196,-0.0181,-0.0249,-0.0117,-0.0098,-0.0037,-0.0032,-0.0021,-0.0015,0.0137,0.0137,0.0138,0.0062,0,0,0,0,0,0,-0.0448,-0.0441,-0.0446,-0.0388,-0.0373,-0.034,-0.031,-0.0297,-0.0273,-0.0269,-0.0183,-0.0168,-0.0115,-0.0047,-0.003,-0.0023,-0.001,0.0136,0.0137,0.0138,0.0064,0.0059,0.0056,0,0,0,0,0,-0.0451,-0.046,-0.0447,-0.0439,-0.0382,-0.034,-0.0329,-0.0286,-0.0273,-0.0267,-0.0207,-0.017,-0.003,-0.0041,-0.0022,-0.0013,0.0136,0.0137,0.0138,0.0065,0.006,0.0056,0,0,0,0,0,0,-0.0493,-0.0453,-0.0437,-0.0433,-0.0394,-0.0331,-0.0322,-0.0292,-0.0241,-0.0238,-0.0162,-0.0142,-0.0088,-0.0038,-0.0052,0.0036,0.0058,0.0063,-0.0004,-0.0008,-0.0011,-0.0035,-0.0004,0,0,0,0,0,-0.0507,-0.0505,-0.0454,-0.0452,-0.0437,-0.0382,-0.0361,-0.0332,-0.0279,-0.0257,-0.0196,-0.0129,-0.0067,-0.0031,0.0029,0.0081,0.013,0.0099,0.0095,0.0091,0.0086,0.0164,0.0167,0.0141,0.0141,0.0141,0,0,-0.0521,-0.05,-0.0498,-0.0461,-0.0429,-0.0412,-0.0369,-0.0344,-0.0326,-0.0246,-0.0202,-0.0141,-0.0058,-0.0003,0.0026,0.0039,0.0124,0.0092,0.0088,0.0085,0.0165,0.0168,0.017,0.0142,0.0142,0.0142,0,0,-0.0552,-0.0534,-0.0542,-0.0516,-0.0477,-0.044,-0.0438,-0.0379,-0.0349,-0.03,-0.0238,-0.0175,-0.0084,-0.002,0.0023,0.0037,0.0098,0.0053,0.0021,0.0097,0.01,0.0102,0.0161,0.017,0.0055,0.0055,0.0055,0,-0.0572,-0.0575,-0.0536,-0.0535,-0.0519,-0.046,-0.046,-0.0418,-0.0345,-0.0316,-0.0298,-0.0157,-0.009,-0.0011,-0.001,0.0029,0.0072,0.0028,0.0091,0.0095,0.0099,0.0159,0.0169,0.0051,0.0052,0.0052,0.0052,0,-0.0604,-0.0606,-0.0608,-0.0589,-0.0566,-0.0557,-0.0499,-0.047,-0.0428,-0.0376,-0.0298,-0.0204,-0.012,-0.0087,-0.0044,0.0021,0.0042,0.0071,0.0096,0.0096,0.016,0.0172,0.0046,0.0048,0.0049,0.0049,0,0,-0.0644,-0.0635,-0.0635,-0.0639,-0.0596,-0.058,-0.0552,-0.0499,-0.0475,-0.0398,-0.0352,-0.0244,-0.0193,-0.0141,-0.007,-0.0004,0.0062,0.0035,0.004,0.0081,0.0217,0.0229,0.0244,0.0099,0.01,0.0102,0.0246,0,-0.0679,-0.0704,-0.0679,-0.0691,-0.0696,-0.064,-0.0618,-0.0563,-0.05,-0.044,-0.0334,-0.0266,-0.0212,-0.0174,-0.0099,0.0025,0.0092,0.002,0.0221,0.0227,0.0228,0.0258,0.0214,0.0338,0.0258,0.026,0.0262,0,-0.0713,-0.0726,-0.0754,-0.0748,-0.0744,-0.0739,-0.0691,-0.0661,-0.0562,-0.0512,-0.0423,-0.034,-0.0226,-0.0187,0.0018,-0.0034,0.0077,0.0172,0.018,0.0226,0.0263,0.0329,0.0364,0.0283,0.0282,0.028,0.0279,0,-0.0763,-0.0774,-0.0803,-0.08,-0.0782,-0.078,-0.0761,-0.0685,-0.0655,-0.0555,-0.0517,-0.0375,-0.0295,-0.0143,0.0045,0.0033,0.0269,0.0285,0.0404,0.0406,0.0426,0.0426,0.0426,0.0426,0.0426,0.0425,0.0425,0,-0.0807,-0.0827,-0.0834,-0.0849,-0.0876,-0.0839,-0.0837,-0.0794,-0.0723,-0.0682,-0.0561,-0.049,-0.0281,-0.0122,0.0038,0.026,0.0271,0.0404,0.045,0.0397,0.0393,0.0391,0.0385,0.0431,0.043,0.0429,0.0428,0,-0.0852,-0.0858,-0.0893,-0.0899,-0.0904,-0.0921,-0.0905,-0.0894,-0.0822,-0.0764,-0.0737,-0.0561,-0.0353,-0.0138,0.0129,0.0255,0.0461,0.0537,0.045,0.0482,0.0546,0.0534,0.068,0.0681,0.0683,0.0684,0.0685,0,-0.0875,-0.0902,-0.0939,-0.0968,-0.0976,-0.0994,-0.1004,-0.0952,-0.093,-0.0797,-0.0769,-0.0568,-0.0405,-0.0022,0.0232,0.0514,0.0526,0.0627,0.06,0.0545,0.0575,0.0561,0.0548,0.06,0.06,0.06,0.0601,0,-0.0915,-0.0932,-0.0963,-0.1031,-0.1062,-0.1087,-0.1091,-0.1092,-0.1011,-0.0938,-0.0798,-0.066,-0.0303,-0.0006,0.034,0.0501,0.0573,0.064,0.0639,0.0529,0.0478,0.0504,0.0493,0.0603,0.0602,0.0602,0.0602,0.0602,-0.0938,-0.0977,-0.1026,-0.1084,-0.1127,-0.1161,-0.117,-0.1147,-0.11,-0.0967,-0.0833,-0.0596,-0.0322,0.0168,0.0411,0.0633,0.0636,0.0691,0.0688,0.0684,0.0636,0.0589,0.0725,0.0725,0.0726,0.0726,0.0727,0,-0.096,-0.1008,-0.1073,-0.114,-0.119,-0.1198,-0.1209,-0.118,-0.1115,-0.0964,-0.0799,-0.0483,-0.0153,0.0141,0.0486,0.0688,0.0673,0.0721,0.0656,0.0652,0.065,0.0597,0.0678,0.0678,0.0679,0.0679,0,0,-0.0975,-0.104,-0.1078,-0.1168,-0.1215,-0.1247,-0.1248,-0.1181,-0.1066,-0.0902,-0.0725,-0.0488,-0.014,0.0091,0.0344,0.0522,0.0537,0.0541,0.0558,0.0448,0.0443,0.0612,0.0525,0,0,0,0,0]}],[{"header":{"parameterUnit":"m.s-1","parameterCategory":2,"la1":30.2991,"la2":30.254,"lo1":-89.0895,"lo2":-89.0444,"dy":0.0017,"dx":0.0017,"nx":28,"ny":28,"refTime":"2026-01-04T09:00:00:Z","depth":"4","parameterNumber":2,"parameterNumberName":"U-component_of_CURRENTS"},"data":[0,0,0,0,0,0,0,0,0,0,0,0,0,0,0,0,0,0,0,0,0,0,0,0,0,0,0,0,0,0,0,0,0,0,0,0,0,0,0,0,0,0,0,0,0,0,0,0,0,0,0,0,0,0,0,0,0,0,-0.1851,-0.1852,0,-0.1881,-0.1881,-0.1881,-0.1895,-0.1896,-0.1896,-0.1897,-0.1904,-0.1904,-0.1904,0,0,0,0,0,0,0,0,0,0,0,0,0,-0.1769,-0.177,-0.1851,-0.1852,-0.1853,-0.1881,-0.1881,-0.1881,-0.1895,-0.1896,-0.1896,-0.1897,-0.1904,-0.1904,-0.1904,0,0,0,0,0,0,0,0,0,0,0,0,0,-0.1798,-0.177,-0.1851,-0.1867,-0.1869,-0.1881,-0.1881,-0.1881,-0.1895,-0.1896,-0.1896,-0.1897,-0.1904,-0.1904,-0.1904,-0.1889,0,0,-0.1903,-0.1902,0,0,0,0,0,0,0,0,-0.1796,-0.18,-0.1864,-0.1866,-0.1868,-0.1889,-0.1855,-0.1884,-0.1895,-0.188,-0.1897,-0.1897,-0.19,-0.19,-0.1897,-0.1889,-0.189,-0.1903,-0.1902,-0.1902,-0.1902,0,0,0,0,0,0,0,-0.1794,-0.1799,-0.1858,-0.1865,-0.1867,-0.186,-0.1864,-0.186,-0.1882,-0.1882,-0.1884,-0.1894,-0.19,-0.1898,-0.1898,-0.189,-0.1903,-0.1902,-0.1902,-0.1902,-0.1937,-0.1938,0,0,0,0,0,0,-0.1801,-0.1797,-0.1857,-0.186,-0.1838,-0.1861,-0.1866,-0.1878,-0.1883,-0.1885,-0.1894,-0.1895,-0.1898,-0.1898,-0.1898,-0.1956,-0.1902,-0.1902,-0.1902,-0.1936,-0.1937,-0.1938,0,0,0,0,0,0,-0.18,-0.1807,-0.1856,-0.1832,-0.1839,-0.1863,-0.1875,-0.1878,-0.1911,-0.1893,-0.1894,-0.1928,-0.1898,-0.1899,-0.1921,-0.1954,-0.1902,-0.1902,-0.1934,-0.1936,-0.1938,-0.2024,0,0,0,0,0,0,-0.1797,-0.1806,-0.1827,-0.1833,-0.1841,-0.1885,-0.1875,-0.1879,-0.1917,-0.1919,-0.1922,-0.1921,-0.1899,-0.1922,-0.1921,-0.1952,-0.1901,-0.1933,-0.1935,-0.1937,-0.202,-0.2029,-0.2036,0,0,0,0,0,-0.1794,-0.1809,-0.1828,-0.1836,-0.1866,-0.1887,-0.189,-0.1905,-0.1918,-0.1936,-0.194,-0.1923,-0.1934,-0.1923,-0.1921,-0.1953,-0.1932,-0.1934,-0.1937,-0.2016,-0.2027,-0.2036,0,0,0,0,0,0,-0.1779,-0.1813,-0.1833,-0.1859,-0.1887,-0.1892,-0.191,-0.1928,-0.1945,-0.1954,-0.1938,-0.1937,-0.1967,-0.1948,-0.1936,-0.1968,-0.193,-0.1932,-0.1991,-0.2001,-0.2009,-0.1998,-0.1901,0,0,0,0,0,-0.179,-0.1814,-0.1846,-0.1869,-0.1888,-0.191,-0.1926,-0.1942,-0.1954,-0.1964,-0.1972,-0.1972,-0.197,-0.1978,-0.1971,-0.1993,-0.1956,-0.2011,-0.2019,-0.2026,-0.2016,-0.1995,-0.2,-0.1946,-0.1946,-0.1946,0,0,-0.179,-0.1813,-0.1828,-0.1869,-0.189,-0.1916,-0.1921,-0.1956,-0.1982,-0.1961,-0.2004,-0.2003,-0.1981,-0.2002,-0.2014,-0.1997,-0.2024,-0.2029,-0.2036,-0.2021,-0.1998,-0.2003,-0.2007,-0.1948,-0.1948,-0.1947,0,0,-0.1788,-0.1828,-0.1847,-0.1877,-0.1924,-0.1939,-0.1962,-0.1997,-0.2021,-0.206,-0.2048,-0.2069,-0.2078,-0.2066,-0.2058,-0.2106,-0.2066,-0.2115,-0.2152,-0.2133,-0.2137,-0.214,-0.2108,-0.2108,-0.2122,-0.2122,-0.2122,0,-0.179,-0.1819,-0.1855,-0.1882,-0.191,-0.1956,-0.1983,-0.2011,-0.2053,-0.207,-0.2085,-0.2105,-0.2101,-0.2107,-0.2128,-0.2124,-0.2102,-0.212,-0.2143,-0.2145,-0.2146,-0.2113,-0.2112,-0.2127,-0.2126,-0.2126,-0.2125,0,-0.1794,-0.1834,-0.1849,-0.1901,-0.1935,-0.1968,-0.2016,-0.206,-0.2104,-0.2126,-0.2168,-0.217,-0.2175,-0.219,-0.2176,-0.2192,-0.2169,-0.2155,-0.2119,-0.2157,-0.212,-0.2117,-0.2133,-0.2132,-0.213,-0.2129,0,0,-0.175,-0.1835,-0.1844,-0.1877,-0.1952,-0.1974,-0.2031,-0.2081,-0.2113,-0.2171,-0.22,-0.2226,-0.224,-0.2231,-0.223,-0.2227,-0.2232,-0.2207,-0.2204,-0.2176,-0.2185,-0.2054,-0.2037,-0.2229,-0.2229,-0.2229,-0.2157,0,-0.1745,-0.1795,-0.1842,-0.1897,-0.1928,-0.1995,-0.2039,-0.2094,-0.2143,-0.2185,-0.2213,-0.2237,-0.2252,-0.2264,-0.2269,-0.2237,-0.2226,-0.2252,-0.215,-0.2146,-0.2025,-0.2029,-0.2228,-0.2154,-0.2153,-0.2153,-0.2152,0,-0.1726,-0.1766,-0.1819,-0.19,-0.1921,-0.1963,-0.2039,-0.2084,-0.2151,-0.2189,-0.2231,-0.2251,-0.2271,-0.2274,-0.2247,-0.2266,-0.2231,-0.2206,-0.2203,-0.2041,-0.2008,-0.2104,-0.2145,-0.2146,-0.2146,-0.2147,-0.2147,0,-0.1662,-0.1747,-0.179,-0.182,-0.1917,-0.1956,-0.2009,-0.2084,-0.212,-0.2189,-0.2213,-0.2249,-0.2257,-0.224,-0.2214,-0.2231,-0.2162,-0.2169,-0.2014,-0.2005,-0.2108,-0.2105,-0.2129,-0.2129,-0.213,-0.213,-0.213,0,-0.162,-0.1658,-0.177,-0.1791,-0.1841,-0.1925,-0.1978,-0.2035,-0.2107,-0.2126,-0.2209,-0.2209,-0.225,-0.2227,-0.2203,-0.2088,-0.2149,-0.2003,-0.1971,-0.2147,-0.215,-0.2105,-0.2103,-0.2127,-0.2128,-0.2128,-0.2129,0,-0.1536,-0.1615,-0.1668,-0.1777,-0.1812,-0.1847,-0.1952,-0.1977,-0.2066,-0.209,-0.2112,-0.2172,-0.2134,-0.2147,-0.2098,-0.2041,-0.1964,-0.1906,-0.2084,-0.2066,-0.1825,-0.1829,-0.1719,-0.1713,-0.1709,-0.1705,-0.1702,0,-0.1494,-0.1516,-0.1636,-0.1666,-0.172,-0.1791,-0.1828,-0.1938,-0.1958,-0.2039,-0.2024,-0.2035,-0.2054,-0.1874,-0.1915,-0.184,-0.1823,-0.1778,-0.1812,-0.1799,-0.178,-0.1791,-0.18,-0.1694,-0.1693,-0.1692,-0.1691,0,-0.1406,-0.1466,-0.1509,-0.157,-0.1622,-0.1667,-0.1729,-0.1727,-0.183,-0.1931,-0.1872,-0.1844,-0.1791,-0.1759,-0.1709,-0.1666,-0.181,-0.173,-0.174,-0.1772,-0.1768,-0.1756,-0.1771,-0.1675,-0.1677,-0.1679,-0.168,0,-0.1339,-0.1348,-0.1414,-0.1448,-0.1512,-0.1511,-0.1565,-0.1575,-0.1608,-0.1707,-0.1675,-0.1696,-0.1754,-0.1665,-0.1622,-0.1566,-0.1549,-0.151,-0.1532,-0.1549,-0.153,-0.1504,-0.1282,0,0,0,0,0,-0.1264,-0.1256,-0.1283,-0.1312,-0.1368,-0.1399,-0.148,-0.1538,-0.1636,-0.1543,-0.1606,-0.1552,-0.1488,-0.1506,-0.141,-0.1549,-0.156,-0.1433,-0.1529,-0.1588,-0.1606,-0.1601,0,0,0,0,0,0,-0.1214,-0.1237,-0.1237,-0.1187,-0.1178,-0.1217,-0.126,-0.1331,-0.1293,-0.14,-0.1364,-0.1456,-0.1409,-0.1504,-0.1373,-0.1379,-0.1407,-0.1463,-0.1459,-0.1577,-0.1594,-0.1608,-0.161,0,0,0,0,0]},{"header":{"parameterUnit":"m.s-1","parameterCategory":2,"la1":30.2991,"la2":30.254,"lo1":-89.0895,"lo2":-89.0444,"dy":0.0017,"dx":0.0017,"nx":28,"ny":28,"refTime":"2026-01-04T09:00:00:Z","depth":"4","parameterNumber":3,"parameterNumberName":"V-component_of_CURRENTS"},"data":[0,0,0,0,0,0,0,0,0,0,0,0,0,0,0,0,0,0,0,0,0,0,0,0,0,0,0,0,0,0,0,0,0,0,0,0,0,0,0,0,0,0,0,0,0,0,0,0,0,0,0,0,0,0,0,0,0,0,-0.0292,-0.0292,0,-0.0229,-0.0228,-0.0228,-0.0194,-0.0194,-0.0194,-0.0194,-0.0095,-0.0093,-0.009,0,0,0,0,0,0,0,0,0,0,0,0,0,-0.0326,-0.0326,-0.0292,-0.0292,-0.0291,-0.0229,-0.0228,-0.0227,-0.0194,-0.0194,-0.0194,-0.0194,-0.0096,-0.0093,-0.009,0,0,0,0,0,0,0,0,0,0,0,0,0,-0.0292,-0.0326,-0.0292,-0.0267,-0.0264,-0.0229,-0.0228,-0.0227,-0.0194,-0.0194,-0.0194,-0.0194,-0.0097,-0.0093,-0.0089,-0.0065,0,0,-0.0077,-0.0076,0,0,0,0,0,0,0,0,-0.0294,-0.029,-0.0272,-0.0269,-0.0266,-0.022,-0.0204,-0.0171,-0.0194,-0.022,-0.0194,-0.0194,-0.0134,-0.0127,-0.0115,-0.0061,-0.0057,-0.0077,-0.0075,-0.0073,-0.0072,0,0,0,0,0,0,0,-0.0296,-0.0293,-0.0267,-0.0271,-0.0267,-0.0239,-0.0235,-0.0197,-0.0177,-0.0218,-0.0215,-0.0209,-0.0132,-0.0119,-0.0112,-0.0055,-0.0077,-0.0074,-0.0071,-0.007,0.0031,0.0031,0,0,0,0,0,0,-0.0308,-0.0295,-0.0269,-0.0265,-0.0281,-0.0239,-0.0234,-0.0234,-0.0178,-0.017,-0.0209,-0.0208,-0.0126,-0.0117,-0.0109,-0.0071,-0.0073,-0.0069,-0.0067,0.0031,0.0031,0.0032,0,0,0,0,0,0,-0.0309,-0.0307,-0.0271,-0.0278,-0.0272,-0.0239,-0.0239,-0.0233,-0.0224,-0.0172,-0.0163,-0.0208,-0.0125,-0.0114,-0.0077,-0.0067,-0.0068,-0.0064,0.003,0.0031,0.0031,-0.0,0,0,0,0,0,0,-0.0311,-0.0308,-0.0315,-0.028,-0.0272,-0.0257,-0.0239,-0.0232,-0.022,-0.0218,-0.0167,-0.0158,-0.0124,-0.0083,-0.0073,-0.0062,-0.0061,0.003,0.0031,0.0031,0.0001,-0.0001,-0.0002,0,0,0,0,0,-0.0312,-0.0322,-0.0316,-0.0313,-0.0283,-0.0257,-0.025,-0.0226,-0.022,-0.0218,-0.0182,-0.016,-0.0072,-0.008,-0.0068,-0.0056,0.003,0.003,0.0031,0.0001,-0.0,-0.0002,0,0,0,0,0,0,-0.0339,-0.0318,-0.0312,-0.0315,-0.0291,-0.0252,-0.0249,-0.0232,-0.0202,-0.0203,-0.0154,-0.0142,-0.0106,-0.0078,-0.0088,-0.0025,-0.0018,-0.0015,-0.0045,-0.0046,-0.0047,-0.0064,-0.0058,0,0,0,0,0,-0.035,-0.0355,-0.0324,-0.0328,-0.032,-0.0287,-0.0275,-0.0259,-0.0226,-0.0214,-0.0175,-0.0134,-0.0093,-0.0069,-0.0032,0.0003,0.0033,0.0018,0.0017,0.0016,0.001,0.0068,0.0071,0.0034,0.0034,0.0034,0,0,-0.0362,-0.0352,-0.0354,-0.0335,-0.0317,-0.0306,-0.028,-0.0268,-0.0255,-0.0207,-0.018,-0.0139,-0.0086,-0.0046,-0.0028,-0.0022,0.0042,0.0017,0.0015,0.001,0.0069,0.0073,0.0076,0.0034,0.0034,0.0034,0,0,-0.0385,-0.038,-0.0389,-0.0373,-0.0352,-0.0329,-0.0329,-0.0291,-0.0272,-0.0241,-0.02,-0.0154,-0.0098,-0.005,-0.002,-0.0005,0.0031,0.0004,-0.001,0.0046,0.005,0.0053,0.0092,0.0099,0.0007,0.0006,0.0006,0,-0.0401,-0.0408,-0.0386,-0.0387,-0.0379,-0.0343,-0.0344,-0.0316,-0.027,-0.025,-0.024,-0.0143,-0.0097,-0.0035,-0.0029,-0.0006,0.0021,-0.001,0.0044,0.0048,0.0052,0.0091,0.01,0.0005,0.0005,0.0005,0.0005,0,-0.0423,-0.0431,-0.0434,-0.0426,-0.0412,-0.0409,-0.0369,-0.0351,-0.0324,-0.0288,-0.0232,-0.0163,-0.0106,-0.0078,-0.0048,0.0007,0.0014,0.0033,0.0045,0.0054,0.0095,0.0104,0.0003,0.0003,0.0004,0.0004,0,0,-0.0451,-0.0452,-0.0454,-0.0462,-0.0435,-0.0427,-0.0406,-0.037,-0.0357,-0.0298,-0.0268,-0.018,-0.0145,-0.0109,-0.0055,-0.0001,0.0057,0.0021,0.0025,0.0054,0.0166,0.0136,0.0144,0.0082,0.0083,0.0085,0.0181,0,-0.0476,-0.0499,-0.0484,-0.0499,-0.0506,-0.047,-0.0455,-0.0418,-0.0375,-0.0334,-0.0249,-0.0203,-0.0155,-0.0129,-0.0064,0.0023,0.0079,0.0028,0.0158,0.0161,0.013,0.0153,0.0089,0.0188,0.0191,0.0192,0.0193,0,-0.0497,-0.0512,-0.0539,-0.0544,-0.0544,-0.0546,-0.052,-0.05,-0.0429,-0.0395,-0.0326,-0.0263,-0.017,-0.0137,0.002,-0.0019,0.0066,0.0137,0.0143,0.013,0.0148,0.0181,0.021,0.0209,0.0208,0.0207,0.0206,0,-0.053,-0.0547,-0.0576,-0.0577,-0.0574,-0.058,-0.0574,-0.0523,-0.0507,-0.0434,-0.0412,-0.0296,-0.0241,-0.0117,0.0028,0.0024,0.0194,0.0212,0.0269,0.0268,0.0279,0.0275,0.0325,0.0325,0.0324,0.0324,0.0324,0,-0.0554,-0.0578,-0.0602,-0.0617,-0.0652,-0.063,-0.0645,-0.0616,-0.0573,-0.0551,-0.0452,-0.0405,-0.0234,-0.0115,0.0015,0.0164,0.019,0.0267,0.0294,0.0263,0.0256,0.0286,0.028,0.0328,0.0327,0.0326,0.0326,0,-0.0578,-0.0594,-0.0633,-0.0657,-0.0671,-0.0696,-0.0709,-0.071,-0.0664,-0.0632,-0.0613,-0.0482,-0.033,-0.0157,0.0049,0.0138,0.029,0.0341,0.0283,0.0305,0.0328,0.0319,0.0407,0.0407,0.0406,0.0406,0.0406,0,-0.0588,-0.0613,-0.0674,-0.0709,-0.0728,-0.0764,-0.0786,-0.0761,-0.0753,-0.0673,-0.0654,-0.0516,-0.041,-0.0139,0.0034,0.0272,0.0307,0.0372,0.0361,0.032,0.0339,0.033,0.0322,0.0406,0.0406,0.0406,0.0406,0,-0.0606,-0.0637,-0.0672,-0.0753,-0.08,-0.0838,-0.0863,-0.0865,-0.082,-0.0786,-0.0672,-0.0525,-0.0357,-0.0147,0.0034,0.0208,0.0319,0.0371,0.0372,0.0363,0.0321,0.0337,0.0329,0.0405,0.0405,0.0405,0.0405,0,-0.062,-0.0657,-0.0717,-0.078,-0.0847,-0.0888,-0.0899,-0.0875,-0.0857,-0.0761,-0.0726,-0.053,-0.0415,-0.018,-0.0009,0.015,0.0188,0.0229,0.0239,0.0242,0.016,0.0081,0.0117,0,0,0,0,0,-0.0626,-0.067,-0.0737,-0.0808,-0.0876,-0.0908,-0.0935,-0.093,-0.0893,-0.0818,-0.0766,-0.06,-0.0342,-0.0227,-0.0072,-0.0025,0.02,0.0158,0.0249,0.0402,0.0403,0.0332,0,0,0,0,0,0,-0.0633,-0.0698,-0.0734,-0.0814,-0.0865,-0.0927,-0.0945,-0.0923,-0.0867,-0.0809,-0.0665,-0.0581,-0.0324,-0.0425,-0.0072,-0.0025,0.0047,0.0285,0.0288,0.0402,0.0402,0.0403,0.033,0,0,0,0,0]}]]